Location: Biharia
(46.4333°N, 22.8000°E)
Time: 09:30:20
(UTC+00:00)

Iridium 4 Rocket - Pass Details

Date: 16 October 2021
Orbit: 586 x 903 km, 86.9° (Epoch: 02 December)

Event Time Altitude Azimuth Distance (km) Brightness Sun altitude
Rises 17:45:38 0° 352° (N) 2,875 6.7 -22.3°
Reaches altitude 10° 17:47:49 10° 348° (NNW) 1,994 5.9 -22.7°
Maximum altitude 17:52:04 53° 272° (W) 803 3.9 -23.4°
Drops below altitude 10° 17:56:37 10° 196° (SSW) 2,133 5.8 -24.2°
Sets 17:59:01 0° 192° (SSW) 3,098 6.6 -24.6°
